User: anonymous   Login
Location: Dead Woman Crossing
(43.5369°N, 106.3228°W)
Time: 05:50:26
(UTC+00:00)
Language:

Tiangong - Orbit

View from above orbital plane
View from above orbital plane
View from above satellite
View from above satellite

Ground track
Ground track

The orbit data is extracted from the following two-line orbital elements,

1 48274U 21035A   22146.84642361  .00027212  00000-0  32722-3 0  9998
2 48274  41.4723 348.6612 0001536  68.7753 111.3946 15.60228322 61439
Epoch (UTC): 26 May 2022 20:18:51
Eccentricity: 0.0001536
inclination: 41.4723°
perigee height: 386 km
apogee height: 388 km
right ascension of ascending node: 348.6612°
argument of perigee: 68.7753°
revolutions per day: 15.60228322
mean anomaly at epoch: 111.3946°
orbit number at epoch: 6143

The dashed part of the orbit path shows where the satellite is in the earth's shadow,  

DLR